Location: Bagnara
(41.0500°N, 14.7833°E)
Time: 00:00:05
(UTC+00:00)

Meteor 2-3 Rocket - Pass Details

Date: 30 October 2021
Orbit: 842 x 885 km, 81.2° (Epoch: 28 November)

Event Time Altitude Azimuth Distance (km) Brightness Sun altitude
Rises 18:07:36 0° 358° (N) 3,427 6.9 -24.8°
Reaches altitude 10° 18:10:14 10° 7° (N) 2,493 6.1 -25.2°
Enters shadow 18:11:45 18° 17° (NNE) 2,003 5.5 -25.5°
